Location: La Chapelle
(48.3135°N, 1.3085°W)
Time: 18:05:22
(UTC+00:00)

Cosmos 2221 Rocket - Pass Details

Date: 03 March 2021
Orbit: 621 x 647 km, 82.5° (Epoch: 20 April)

Event Time Altitude Azimuth Distance (km) Brightness Sun altitude
Rises 20:17:34 0° 351° (N) 2,914 7.4 -24.6°
Reaches altitude 10° 20:19:48 10° 353° (N) 2,004 6.5 -24.9°
Enters shadow 20:23:09 50° 4° (N) 796 4.1 -25.5°
